Starlink 31723

operational
NORAD ID: 59553 Int'l Des: 2024-074 Owner: SPXS Country: US Constellation: starlink
LEOCIRCULAR

Starlink 31723について

説明を読み込み中...

リアルタイム位置

3D地球を読み込み中...

次回通過

高度履歴

Altitude vs Time

uPlot chart will show altitude changes over time

軌道要素

1 59553U 24074V 25351.29654875 -.00000163 00000-0 36020-5 0 9993
2 59553 42.9969 88.8111 0000501 284.3737 75.7059 15.27579138 93413
Epoch: Dec 17, 2025 • Age: 11 hours

現在のステータス

高度 482.3 km
速度 7.63 km/s
衛星直下点 3.77°N, 91.74°E
打ち上げ日 Apr 18, 2024
運用期間 1.6 years
タイプ internet

技術仕様

分類 Payload
質量 730.00 kg
乾燥質量 700.00 kg
総質量 730.00 kg
長さ 0.30 m
直径 4.10 m
スパン 29.00 m
形状 Box + pan
製造者 SPXS
バスタイプ Starlink V2M
フェーズステータス In Orbit
所有者/国 SPXS/US

大規模コンステレーション

Loading constellations...